QPF
0.04 0.04 0.04 0.04 0.04 0.03 0.03 0.03 0.03 0.03 0.02 0.02 0.02 0.02 0.02 0.02 0.02 0.02 0.01 0.02 0.02 0.02 0.02 0.02 0.02 0.02 0.02 0.02 0.03 0.03 0.05 0.06 0.06 0.07 0.08 0.09 0.09 0.09
0.03 0.03 0.03 0.03 0.03 0.03 0.03 0.03 0.03 0.04 0.03 0.03 0.02 0.01 0.01 0.01 0.01 0.01 0.01 0.02 0.02 0.02 0.02 0.02 0.02 0.02 0.02 0.02 0.02 0.02 0.03 0.05 0.06 0.06 0.07 0.09 0.10 0.09
0.03 0.02 0.03 0.04 0.03 0.03 0.03 0.03 0.03 0.03 0.03 0.03 0.03 0.02 0.01 0.01 0.01 0.01 0.01 0.01 0.02 0.02 0.02 0.02 0.02 0.02 0.02 0.02 0.02 0.02 0.03 0.03 0.05 0.06 0.06 0.08 0.10 0.10
0.04 0.03 0.03 0.04 0.03 0.02 0.02 0.03 0.03 0.03 0.02 0.02 0.02 0.02 0.01 0.01 0.01 0.01 0.01 0.01 0.01 0.01 0.01 0.01 0.01 0.01 0.01 0.02 0.02 0.03 0.03 0.03 0.04 0.06 0.07 0.08 0.09 0.10
0.05 0.04 0.03 0.02 0.01 0.01 0.02 0.02 0.02 0.02 0.02 0.01 0.01 0.01 0.02 0.01 0.01 0.01 0.01 0.01 0.01 0.01 0.01 0.01 0.02 0.02 0.02 0.02 0.02 0.03 0.03 0.03 0.03 0.04 0.05 0.06 0.08 0.08
0.05 0.04 0.03 0.02 0.01 0.01 0.02 0.01 0.01 0.02 0.02 0.01 0.01 0.01 0.01 0.01 0.02 0.01 0.01 0.01 0.01 0.01 0.01 0.02 0.02 0.03 0.03 0.03 0.02 0.03 0.03 0.03 0.03 0.03 0.03 0.04 0.06 0.08
0.05 0.05 0.05 0.03 0.02 0.02 0.02 0.01 0.01 0.01 0.01 0.01 0.01 0.01 0.01 0.01 0.01 0.02 0.01 0.01 0.02 0.02 0.01 0.02 0.02 0.03 0.03 0.04 0.04 0.04 0.04 0.04 0.04 0.03 0.03 0.03 0.05 0.06
0.08 0.06 0.06 0.05 0.04 0.04 0.03 0.02 0.01 0.01 0.01 0.01 0.01 0.01 0.01 0.01 0.02 0.02 0.02 0.02 0.02 0.01 0.01 0.02 0.02 0.03 0.03 0.04 0.05 0.05 0.05 0.05 0.04 0.04 0.03 0.03 0.04 0.04
0.13 0.11 0.09 0.06 0.05 0.04 0.03 0.03 0.03 0.03 0.02 0.01 0.01 0.01 0.01 0.01 0.02 0.02 0.02 0.02 0.02 0.01 0.01 0.01 0.02 0.03 0.03 0.04 0.05 0.05 0.05 0.03 0.03 0.03 0.03 0.03 0.03 0.03
0.09 0.10 0.10 0.08 0.06 0.05 0.04 0.03 0.02 0.02 0.02 0.01 0.01 0.01 0.01 0.01 0.02 0.02 0.02 0.02 0.03 0.03 0.02 0.02 0.02 0.02 0.03 0.03 0.04 0.03 0.03 0.03 0.03 0.03 0.03 0.03 0.03 0.03
0.06 0.06 0.05 0.05 0.05 0.04 0.04 0.03 0.02 0.02 0.01 0.01 0.01 0.01 0.02 0.03 0.02 0.02 0.02 0.02 0.02 0.04 0.03 0.03 0.02 0.02 0.03 0.04 0.04 0.03 0.03 0.03 0.03 0.03 0.03 0.03 0.03 0.03
0.05 0.06 0.06 0.06 0.04 0.03 0.02 0.02 0.02 0.02 0.02 0.02 0.01 0.01 0.01 0.02 0.02 0.02 0.01 0.02 0.02 0.03 0.03 0.03 0.02 0.02 0.04 0.04 0.04 0.03 0.02 0.02 0.02 0.02 0.03 0.03 0.03 0.03
0.04 0.05 0.05 0.04 0.03 0.02 0.02 0.02 0.02 0.01 0.01 0.01 0.02 0.02 0.02 0.02 0.03 0.01 0.01 0.02 0.02 0.03 0.03 0.03 0.03 0.02 0.03 0.04 0.05 0.04 0.02 0.02 0.01 0.02 0.02 0.03 0.03 0.03
0.03 0.04 0.04 0.03 0.02 0.02 0.02 0.02 0.01 0.01 0.01 0.01 0.02 0.02 0.01 0.02 0.02 0.02 0.01 0.02 0.03 0.04 0.04 0.04 0.04 0.03 0.02 0.03 0.05 0.06 0.04 0.02 0.01 0.01 0.02 0.02 0.03 0.03
0.01 0.03 0.03 0.02 0.02 0.02 0.02 0.02 0.02 0.02 0.02 0.02 0.02 0.01 0.01 0.02 0.02 0.02 0.01 0.01 0.02 0.03 0.05 0.05 0.04 0.04 0.04 0.04 0.04 0.05 0.05 0.04 0.02 0.01 0.01 0.01 0.01 0.02
0.02 0.03 0.02 0.02 0.02 0.01 0.01 0.02 0.02 0.04 0.04 0.03 0.02 0.03 0.02 0.02 0.02 0.02 0.02 0.02 0.02 0.02 0.03 0.04 0.05 0.04 0.04 0.04 0.05 0.05 0.05 0.05 0.04 0.02 0.02 0.01 0.02 0.02
0.04 0.03 0.02 0.02 0.02 0.01 0.01 0.01 0.02 0.03 0.03 0.03 0.03 0.03 0.02 0.02 0.03 0.03 0.04 0.03 0.02 0.02 0.02 0.04 0.05 0.04 0.04 0.05 0.06 0.06 0.05 0.05 0.05 0.04 0.02 0.02 0.02 0.02
0.04 0.03 0.03 0.02 0.01 0.01 0.01 0.01 0.01 0.03 0.03 0.03 0.03 0.03 0.03 0.03 0.03 0.04 0.04 0.03 0.03 0.02 0.03 0.04 0.05 0.05 0.05 0.04 0.05 0.04 0.04 0.04 0.05 0.04 0.03 0.02 0.02 0.02
0.04 0.03 0.03 0.02 0.02 0.01 0.01 0.01 0.02 0.03 0.02 0.02 0.02 0.03 0.03 0.03 0.03 0.03 0.05 0.05 0.04 0.03 0.03 0.04 0.04 0.05 0.04 0.04 0.04 0.04 0.04 0.03 0.03 0.03 0.03 0.02 0.02 0.02
0.05 0.04 0.03 0.03 0.03 0.03 0.03 0.02 0.02 0.01 0.01 0.01 0.02 0.02 0.03 0.04 0.04 0.04 0.05 0.05 0.04 0.04 0.04 0.03 0.03 0.03 0.03 0.04 0.04 0.03 0.03 0.02 0.02 0.02 0.02 0.02 0.02 0.02
0.04 0.04 0.03 0.03 0.04 0.04 0.04 0.04 0.03 0.02 0.02 0.03 0.03 0.03 0.03 0.03 0.03 0.03 0.02 0.03 0.04 0.04 0.04 0.03 0.02 0.02 0.03 0.03 0.02 0.02 0.02 0.02 0.02 0.01 0.01 0.02 0.03 0.02
0.02 0.03 0.04 0.04 0.04 0.04 0.04 0.04 0.04 0.04 0.03 0.03 0.03 0.03 0.03 0.03 0.02 0.02 0.02 0.02 0.03 0.03 0.03 0.03 0.03 0.03 0.03 0.02 0.02 0.02 0.02 0.01 0.01 0.01 0.01 0.01 0.01 0.01
0.02 0.03 0.03 0.03 0.03 0.04 0.04 0.04 0.04 0.04 0.03 0.03 0.03 0.03 0.03 0.02 0.02 0.02 0.01 0.01 0.01 0.02 0.03 0.03 0.03 0.03 0.02 0.02 0.01 0.01 0.02 0.01 0.00 0.01 0.01 0.01 0.01 0.01
MSLP
1010.26 1011.07 1011.89 1012.68 1013.41 1014.05 1014.60 1015.08 1015.51 1015.91 1016.28 1016.62 1016.93 1017.18 1017.37 1017.47 1017.49 1017.45 1017.38 1017.30 1017.26 1017.27 1017.34 1017.47 1017.62 1017.77 1017.89 1017.93 1017.89 1017.77 1017.57 1017.33 1017.06 1016.80 1016.54 1016.31 1016.08 1015.83
1009.87 1010.65 1011.44 1012.20 1012.91 1013.56 1014.14 1014.67 1015.16 1015.64 1016.10 1016.54 1016.94 1017.28 1017.54 1017.70 1017.78 1017.78 1017.74 1017.68 1017.65 1017.65 1017.71 1017.80 1017.91 1018.02 1018.08 1018.07 1017.97 1017.80 1017.56 1017.28 1016.98 1016.68 1016.39 1016.13 1015.87 1015.60
1009.50 1010.23 1010.97 1011.69 1012.38 1013.01 1013.60 1014.17 1014.73 1015.28 1015.82 1016.35 1016.85 1017.27 1017.62 1017.86 1018.01 1018.07 1018.08 1018.06 1018.05 1018.07 1018.12 1018.19 1018.27 1018.33 1018.33 1018.27 1018.12 1017.89 1017.61 1017.28 1016.94 1016.61 1016.29 1016.00 1015.71 1015.41
1009.17 1009.84 1010.53 1011.21 1011.85 1012.47 1013.07 1013.66 1014.26 1014.87 1015.49 1016.10 1016.67 1017.18 1017.61 1017.93 1018.16 1018.30 1018.37 1018.41 1018.45 1018.49 1018.55 1018.62 1018.68 1018.70 1018.67 1018.56 1018.36 1018.09 1017.77 1017.40 1017.03 1016.66 1016.32 1015.99 1015.67 1015.34
1008.89 1009.52 1010.16 1010.79 1011.40 1012.00 1012.59 1013.20 1013.83 1014.48 1015.15 1015.81 1016.45 1017.03 1017.53 1017.93 1018.24 1018.45 1018.60 1018.71 1018.79 1018.88 1018.97 1019.05 1019.10 1019.11 1019.06 1018.92 1018.70 1018.40 1018.05 1017.67 1017.27 1016.88 1016.50 1016.14 1015.79 1015.43
1008.68 1009.27 1009.87 1010.47 1011.06 1011.64 1012.24 1012.85 1013.49 1014.16 1014.86 1015.56 1016.24 1016.86 1017.41 1017.87 1018.24 1018.53 1018.75 1018.92 1019.07 1019.21 1019.33 1019.44 1019.51 1019.53 1019.47 1019.33 1019.11 1018.80 1018.45 1018.05 1017.64 1017.24 1016.84 1016.45 1016.07 1015.67
1008.53 1009.11 1009.70 1010.29 1010.87 1011.44 1012.03 1012.65 1013.29 1013.97 1014.67 1015.37 1016.06 1016.71 1017.29 1017.79 1018.20 1018.54 1018.82 1019.06 1019.26 1019.45 1019.62 1019.76 1019.86 1019.90 1019.86 1019.74 1019.53 1019.25 1018.90 1018.52 1018.11 1017.70 1017.29 1016.88 1016.47 1016.04
1008.43 1009.02 1009.63 1010.23 1010.82 1011.41 1012.00 1012.61 1013.25 1013.91 1014.60 1015.29 1015.97 1016.61 1017.19 1017.70 1018.15 1018.52 1018.85 1019.13 1019.38 1019.61 1019.82 1020.00 1020.13 1020.20 1020.19 1020.10 1019.93 1019.67 1019.36 1019.00 1018.62 1018.21 1017.80 1017.37 1016.94 1016.48
1008.37 1009.02 1009.66 1010.30 1010.93 1011.54 1012.14 1012.75 1013.38 1014.02 1014.68 1015.34 1015.98 1016.60 1017.17 1017.68 1018.12 1018.52 1018.86 1019.17 1019.45 1019.72 1019.95 1020.16 1020.32 1020.42 1020.45 1020.40 1020.26 1020.05 1019.78 1019.45 1019.09 1018.70 1018.29 1017.86 1017.40 1016.92
1008.39 1009.10 1009.81 1010.51 1011.18 1011.82 1012.44 1013.05 1013.67 1014.28 1014.91 1015.53 1016.13 1016.71 1017.25 1017.74 1018.18 1018.57 1018.93 1019.25 1019.54 1019.81 1020.06 1020.29 1020.47 1020.59 1020.65 1020.63 1020.54 1020.37 1020.13 1019.84 1019.50 1019.13 1018.72 1018.29 1017.82 1017.32
1008.51 1009.30 1010.08 1010.83 1011.56 1012.23 1012.88 1013.49 1014.10 1014.69 1015.28 1015.86 1016.42 1016.97 1017.48 1017.94 1018.37 1018.75 1019.09 1019.40 1019.69 1019.96 1020.21 1020.43 1020.62 1020.75 1020.83 1020.83 1020.76 1020.63 1020.42 1020.16 1019.84 1019.48 1019.08 1018.65 1018.18 1017.67
1008.78 1009.63 1010.48 1011.29 1012.06 1012.77 1013.43 1014.04 1014.63 1015.21 1015.76 1016.31 1016.85 1017.36 1017.84 1018.28 1018.69 1019.05 1019.38 1019.68 1019.95 1020.20 1020.43 1020.64 1020.81 1020.94 1021.01 1021.03 1020.97 1020.85 1020.66 1020.41 1020.11 1019.76 1019.36 1018.93 1018.46 1017.95
1009.22 1010.13 1011.02 1011.87 1012.66 1013.39 1014.06 1014.67 1015.25 1015.80 1016.34 1016.86 1017.37 1017.86 1018.32 1018.74 1019.13 1019.48 1019.79 1020.07 1020.32 1020.55 1020.75 1020.93 1021.07 1021.18 1021.24 1021.24 1021.18 1021.05 1020.87 1020.62 1020.32 1019.97 1019.58 1019.14 1018.68 1018.18
1009.86 1010.78 1011.69 1012.56 1013.35 1014.08 1014.73 1015.33 1015.89 1016.43 1016.94 1017.45 1017.94 1018.41 1018.86 1019.28 1019.66 1020.00 1020.30 1020.56 1020.78 1020.97 1021.14 1021.28 1021.39 1021.46 1021.49 1021.47 1021.39 1021.25 1021.04 1020.79 1020.48 1020.12 1019.73 1019.30 1018.84 1018.36
1010.66 1011.58 1012.47 1013.32 1014.09 1014.79 1015.42 1015.99 1016.53 1017.04 1017.53 1018.02 1018.51 1018.97 1019.42 1019.83 1020.21 1020.54 1020.82 1021.06 1021.26 1021.42 1021.55 1021.65 1021.72 1021.75 1021.74 1021.68 1021.57 1021.40 1021.18 1020.90 1020.58 1020.21 1019.81 1019.38 1018.94 1018.48
1011.58 1012.46 1013.30 1014.09 1014.82 1015.47 1016.06 1016.59 1017.10 1017.58 1018.06 1018.54 1019.01 1019.47 1019.91 1020.33 1020.70 1021.02 1021.29 1021.52 1021.69 1021.83 1021.92 1021.98 1022.01 1022.00 1021.95 1021.85 1021.70 1021.50 1021.25 1020.95 1020.60 1020.22 1019.82 1019.40 1018.97 1018.54
1012.52 1013.34 1014.12 1014.84 1015.49 1016.08 1016.62 1017.11 1017.57 1018.03 1018.49 1018.94 1019.41 1019.86 1020.30 1020.70 1021.07 1021.38 1021.64 1021.85 1022.01 1022.12 1022.19 1022.22 1022.21 1022.16 1022.07 1021.94 1021.75 1021.51 1021.23 1020.90 1020.54 1020.15 1019.74 1019.33 1018.92 1018.52
1013.42 1014.15 1014.84 1015.48 1016.07 1016.59 1017.06 1017.51 1017.94 1018.36 1018.79 1019.23 1019.67 1020.11 1020.54 1020.93 1021.29 1021.59 1021.84 1022.03 1022.17 1022.26 1022.31 1022.31 1022.28 1022.20 1022.07 1021.90 1021.69 1021.42 1021.11 1020.76 1020.38 1019.98 1019.58 1019.18 1018.78 1018.41
1014.19 1014.84 1015.45 1016.00 1016.51 1016.97 1017.39 1017.79 1018.19 1018.58 1018.98 1019.40 1019.82 1020.24 1020.64 1021.02 1021.35 1021.64 1021.87 1022.05 1022.18 1022.25 1022.28 1022.27 1022.21 1022.11 1021.97 1021.77 1021.53 1021.24 1020.90 1020.54 1020.15 1019.74 1019.34 1018.95 1018.58 1018.22
1014.80 1015.37 1015.90 1016.38 1016.83 1017.24 1017.62 1017.98 1018.34 1018.71 1019.09 1019.48 1019.87 1020.26 1020.64 1020.99 1021.29 1021.56 1021.78 1021.94 1022.05 1022.12 1022.14 1022.12 1022.05 1021.94 1021.78 1021.56 1021.30 1020.99 1020.64 1020.26 1019.86 1019.46 1019.06 1018.68 1018.32 1017.98
1015.24 1015.73 1016.20 1016.63 1017.03 1017.40 1017.75 1018.09 1018.43 1018.77 1019.13 1019.49 1019.86 1020.22 1020.56 1020.87 1021.15 1021.39 1021.59 1021.74 1021.84 1021.91 1021.93 1021.90 1021.83 1021.71 1021.55 1021.33 1021.05 1020.73 1020.37 1019.98 1019.58 1019.17 1018.77 1018.39 1018.04 1017.72
1015.53 1015.97 1016.38 1016.78 1017.14 1017.49 1017.82 1018.15 1018.47 1018.80 1019.13 1019.47 1019.81 1020.13 1020.44 1020.72 1020.97 1021.18 1021.36 1021.50 1021.60 1021.66 1021.68 1021.66 1021.60 1021.48 1021.31 1021.09 1020.81 1020.49 1020.12 1019.72 1019.31 1018.90 1018.51 1018.13 1017.79 1017.47
1015.69 1016.09 1016.47 1016.84 1017.19 1017.52 1017.85 1018.17 1018.48 1018.80 1019.11 1019.43 1019.73 1020.02 1020.30 1020.55 1020.77 1020.96 1021.12 1021.25 1021.34 1021.41 1021.44 1021.43 1021.37 1021.26 1021.10 1020.88 1020.61 1020.28 1019.91 1019.51 1019.10 1018.69 1018.29 1017.91 1017.57 1017.25
Thickness
5637 5636 5634 5634 5633 5632 5630 5629 5626 5625 5626 5627 5628 5630 5631 5631 5632 5633 5633 5633 5634 5635 5636 5637 5638 5639 5639 5640 5640 5641 5642 5643 5644 5645 5646 5647 5648 5649
5633 5632 5631 5630 5629 5628 5626 5624 5623 5621 5620 5622 5622 5624 5624 5625 5626 5626 5626 5627 5628 5628 5629 5630 5631 5632 5632 5632 5633 5634 5635 5636 5637 5638 5639 5640 5640 5641
5630 5629 5628 5626 5625 5623 5621 5619 5618 5616 5616 5617 5617 5618 5618 5619 5619 5620 5620 5621 5621 5622 5623 5623 5623 5624 5624 5624 5625 5626 5627 5628 5630 5631 5632 5632 5633 5634
5627 5625 5624 5623 5621 5619 5617 5616 5615 5613 5612 5612 5612 5612 5613 5613 5613 5613 5614 5615 5615 5616 5616 5616 5616 5616 5616 5617 5617 5618 5619 5621 5622 5623 5624 5625 5626 5626
5624 5623 5622 5620 5618 5617 5615 5613 5612 5611 5608 5608 5608 5607 5607 5607 5607 5607 5608 5608 5608 5609 5609 5609 5608 5609 5609 5609 5610 5610 5611 5613 5615 5616 5617 5617 5618 5619
5621 5621 5620 5619 5617 5615 5612 5610 5608 5606 5604 5603 5603 5602 5602 5602 5601 5601 5602 5602 5601 5602 5602 5602 5602 5601 5602 5602 5602 5603 5603 5604 5606 5608 5610 5610 5611 5612
5618 5618 5618 5617 5616 5613 5612 5609 5606 5603 5601 5600 5600 5598 5598 5597 5597 5596 5595 5595 5595 5594 5595 5596 5595 5595 5594 5594 5594 5594 5595 5596 5598 5600 5602 5603 5604 5604
5616 5615 5615 5614 5613 5612 5610 5608 5606 5603 5600 5598 5597 5595 5595 5594 5593 5591 5590 5589 5591 5590 5589 5590 5589 5588 5588 5587 5588 5587 5588 5589 5590 5592 5593 5595 5595 5595
5612 5612 5612 5612 5610 5608 5607 5605 5603 5601 5600 5598 5596 5595 5593 5592 5590 5587 5585 5585 5585 5585 5582 5583 5582 5582 5582 5581 5581 5580 5580 5581 5582 5583 5584 5585 5586 5587
5609 5608 5607 5606 5606 5604 5603 5601 5599 5598 5597 5596 5595 5593 5591 5589 5586 5584 5582 5580 5579 5577 5576 5575 5576 5575 5575 5574 5573 5573 5573 5573 5573 5574 5575 5576 5577 5578
5604 5604 5603 5602 5601 5600 5598 5597 5595 5594 5594 5592 5591 5589 5587 5585 5582 5579 5576 5575 5575 5574 5570 5569 5570 5568 5568 5567 5566 5565 5565 5564 5564 5565 5565 5566 5568 5568
5600 5599 5598 5597 5596 5595 5594 5593 5591 5591 5590 5588 5586 5585 5583 5581 5578 5576 5574 5571 5569 5568 5566 5563 5563 5561 5562 5562 5559 5558 5557 5556 5556 5556 5557 5558 5559 5559
5596 5596 5595 5593 5592 5590 5589 5589 5588 5587 5585 5584 5582 5581 5580 5577 5575 5572 5569 5567 5564 5563 5561 5558 5557 5555 5554 5555 5553 5551 5549 5549 5549 5549 5549 5549 5549 5550
5592 5592 5591 5590 5588 5587 5586 5585 5584 5582 5581 5579 5578 5577 5575 5573 5571 5568 5565 5562 5560 5558 5556 5554 5552 5550 5549 5549 5548 5546 5543 5542 5542 5542 5541 5540 5540 5540
5589 5588 5587 5585 5584 5583 5582 5581 5580 5579 5577 5575 5574 5573 5571 5569 5566 5563 5560 5557 5555 5553 5551 5549 5547 5546 5545 5544 5542 5540 5538 5536 5535 5534 5532 5532 5532 5531
5584 5584 5583 5581 5581 5580 5579 5577 5576 5575 5573 5571 5570 5568 5567 5564 5561 5559 5556 5554 5551 5549 5546 5544 5543 5541 5540 5538 5536 5534 5532 5530 5529 5527 5525 5524 5523 5523
5581 5581 5580 5579 5578 5577 5576 5574 5572 5570 5568 5567 5565 5564 5562 5560 5557 5555 5552 5550 5548 5545 5542 5539 5537 5535 5533 5532 5531 5529 5526 5524 5522 5520 5518 5518 5518 5517
5577 5577 5577 5576 5575 5574 5573 5571 5569 5567 5565 5564 5562 5559 5557 5555 5553 5550 5548 5546 5543 5541 5537 5534 5532 5531 5529 5526 5523 5522 5520 5518 5516 5513 5512 5511 5512 5511
5573 5573 5573 5573 5572 5570 5568 5567 5565 5563 5561 5559 5557 5554 5552 5550 5547 5545 5542 5540 5537 5535 5532 5529 5526 5526 5526 5524 5520 5514 5513 5512 5509 5508 5507 5506 5505 5505
5570 5570 5569 5569 5567 5566 5565 5563 5561 5559 5557 5554 5552 5549 5547 5545 5542 5539 5537 5534 5533 5530 5527 5524 5521 5520 5519 5517 5514 5510 5506 5505 5504 5502 5501 5499 5499 5498
5568 5567 5566 5565 5564 5562 5561 5559 5557 5555 5552 5549 5547 5544 5542 5540 5538 5535 5532 5527 5526 5525 5523 5521 5517 5513 5511 5510 5508 5505 5502 5499 5497 5496 5495 5495 5496 5496
5565 5564 5563 5561 5560 5558 5557 5555 5553 5551 5548 5546 5542 5540 5537 5534 5533 5530 5527 5524 5522 5520 5518 5515 5512 5510 5508 5507 5504 5501 5498 5495 5493 5491 5489 5489 5491 5492
5564 5562 5560 5558 5556 5554 5553 5551 5549 5547 5544 5541 5539 5536 5533 5530 5528 5526 5523 5520 5518 5516 5513 5511 5508 5506 5504 5501 5499 5496 5494 5491 5490 5488 5486 5485 5484 5484